Flag for Germany Weather past 2 weeks in Neu-Ulm, Bavaria, Germany

Now
30 °F

Partly sunny.


Feels Like: 23 °F
Forecast: 32 / 36 °F
Wind: 8 mph from Southwest

Location: Laupheim Airport

Current Time: Jan 26, 2015 at 10:37:16 AM

Latest Report: Jan 26, 2015 at 9:20 AM


Visibility: N/A

Pressure: 30.27 "Hg

Humidity: 86%

Dew point: 27 °F

Location of Neu-UlmLocation

Historic Weather in Neu-Ulm — Graph

°F

Neu-Ulm temperature yesterday

Maximum temperature yesterday: 32 °F (at 11:20 AM)
Minimum temperature yesterday: 28 °F (at 8:20 AM)
Average temperature yesterday: 31 °F

Past Weeks' High & Low Weather Summary

 TemperatureHumidityPressure
High52 °F (Jan 13, 2:20 PM)100% (Jan 11, 12:45 PM)30.36 "Hg (Jan 11, 12:45 PM)
Low28 °F (Jan 18, 9:20 AM)32% (Jan 13, 1:20 PM)29.65 "Hg (Jan 16, 4:20 PM)
Average34 °F88%29.99 "Hg
* Reported Jan 11 9:20 AM — Jan 26 9:20 AM, Neu-Ulm, Weather by CustomWeather, © 2014

Note: Actual official high and low records may vary slightly from our data, if they occured in-between our weather recording intervals... More about our weather records

Advertising

Neu-Ulm weather history for previous 24 hours

 ConditionsComfort  
Time TempWeatherWind HumidityBarometerVisibility
9:20 AM
Jan 26
30 °FPartly sunny.8 mph86%30.27 "HgN/A
8:20 AM30 °FPartly sunny.7 mph86%30.27 "HgN/A
7:20 AM30 °FOvercast.9 mph86%30.30 "Hg5 mi
6:20 AM30 °FPassing clouds.9 mph86%30.30 "HgN/A
5:20 AM30 °FPassing clouds.7 mph86%30.30 "HgN/A
4:20 AM30 °FOvercast.7 mph86%30.30 "HgN/A
3:20 AM30 °FOvercast.7 mph86%30.30 "HgN/A
2:20 AM30 °FOvercast.3 mph86%30.30 "HgN/A
1:20 AM30 °FOvercast.7 mph86%30.30 "HgN/A
12:20 AM30 °FOvercast.6 mph93%30.33 "HgN/A
11:20 PM
Jan 25
30 °FLight snow. Overcast.5 mph93%30.33 "HgN/A
10:20 PM30 °FLight snow. Overcast.6 mph93%30.36 "HgN/A
9:20 PM30 °FLight snow. Overcast.6 mph93%30.36 "HgN/A
8:20 PM30 °FLight snow. Overcast.6 mph93%30.36 "HgN/A
7:20 PM30 °FOvercast.3 mph93%30.36 "HgN/A
6:20 PM32 °FPassing clouds.5 mph87%30.36 "HgN/A
5:20 PM32 °FPassing clouds.5 mph87%30.36 "HgN/A
4:20 PM32 °FOvercast.5 mph87%30.33 "HgN/A
3:20 PM32 °FOvercast.5 mph87%30.33 "HgN/A
2:20 PM32 °FOvercast.2 mph87%30.33 "HgN/A
1:20 PM32 °FOvercast.5 mph87%30.33 "HgN/A
12:20 PM32 °FOvercast.5 mph87%30.36 "HgN/A
11:20 AM32 °FOvercast.5 mph80%30.36 "HgN/A
10:20 AM30 °FPartly sunny.3 mph86%30.36 "HgN/A
Weather by CustomWeather, © 2014

See weather overviewHow to use our weather pages